Вернуться в каталог

STARLINK-34894

АктивенСвязьVLEO
NORAD 65753·PAYLOAD·🇺🇸 United States

Запущен Sep 25, 2025 с Cape Canaveral Space Force Station

Loading…

Ближайшие Пролёты (ближайшие 24 часа)

TLE

СвежийSource: CelesTrak SupGP

Эпоха: Sep 15, 2026, 03:29 UTC

1 65753C 25216V   26258.14562500 -.00122950  00000+0 -36361-2 0  2587
2 65753  53.1569 170.9780 0001212  84.4737  40.8165 15.34422922    17

Отслеживайте STARLINK-34894 в реальном времени с AllMySat

Download on the App Store